FABJI LFMN-LFPN

Flight info

Callsign FABJI
Flight time 1h 11m
Altitude 32000
Route BADOD DCT IDAVO DCT ARDOL
Aircraft C750/M-SBDE3FGHRWXY/S

Departure

Time 2026-04-26 16:51
Airport Nice-Côte d'Azur Airport (LFMN)

Arrival

Time 2026-04-26 18:03
Airport Toussus-le-Noble Airport (LFPN)
Time Latitude Longitude Altitude Speed Heading
2026-04-26 16:13 43.66215 7.21385 20 ft 0 kts 135°
2026-04-26 16:45 43.66214 7.21385 17 ft 2 kts 135°
2026-04-26 16:46 43.66179 7.21427 17 ft 11 kts 162°
2026-04-26 16:46 43.66099 7.21345 17 ft 19 kts 225°
2026-04-26 16:46 43.66009 7.21221 17 ft 18 kts 225°
2026-04-26 16:46 43.65950 7.21140 17 ft 11 kts 226°
2026-04-26 16:47 43.65898 7.21069 18 ft 10 kts 224°
2026-04-26 16:47 43.65852 7.21005 18 ft 9 kts 224°
2026-04-26 16:47 43.65809 7.20946 18 ft 9 kts 225°
2026-04-26 16:47 43.65752 7.20882 18 ft 12 kts 201°
2026-04-26 16:48 43.65699 7.20886 18 ft 4 kts 170°
2026-04-26 16:48 43.65675 7.20892 17 ft 4 kts 170°
2026-04-26 16:48 43.65638 7.20901 18 ft 7 kts 170°
2026-04-26 16:48 43.65570 7.20915 18 ft 17 kts 171°
2026-04-26 16:49 43.65410 7.20951 20 ft 16 kts 171°
2026-04-26 16:49 43.65331 7.20929 19 ft 8 kts 220°
2026-04-26 16:49 43.65281 7.20883 18 ft 10 kts 191°
2026-04-26 16:49 43.65254 7.20888 18 ft 3 kts 166°
2026-04-26 16:50 43.65237 7.20901 18 ft 4 kts 144°
2026-04-26 16:50 43.65205 7.20942 18 ft 11 kts 133°
2026-04-26 16:50 43.65211 7.20989 20 ft 0 kts 45°
2026-04-26 16:51 43.65213 7.20991 20 ft 4 kts 45°
2026-04-26 16:51 43.65416 7.21273 21 ft 97 kts 45°
2026-04-26 16:51 43.66049 7.22157 291 ft 134 kts 47°
2026-04-26 16:51 43.66676 7.23157 900 ft 147 kts 58°
2026-04-26 16:52 43.66978 7.24559 1472 ft 159 kts 86°
2026-04-26 16:52 43.66982 7.25081 1695 ft 163 kts 95°
2026-04-26 16:52 43.66029 7.27586 2572 ft 197 kts 139°
2026-04-26 16:52 43.64946 7.28683 3476 ft 195 kts 143°
2026-04-26 16:53 43.63847 7.29794 4416 ft 196 kts 143°
2026-04-26 16:53 43.62749 7.30887 5376 ft 194 kts 142°
2026-04-26 16:53 43.61585 7.31834 6213 ft 201 kts 161°
2026-04-26 16:53 43.60157 7.31817 6985 ft 214 kts 194°
2026-04-26 16:54 43.58819 7.30842 7885 ft 220 kts 211°
2026-04-26 16:54 43.57514 7.29696 8889 ft 224 kts 211°
2026-04-26 16:54 43.56179 7.28556 9897 ft 226 kts 211°
2026-04-26 16:54 43.55046 7.27064 10696 ft 231 kts 242°
2026-04-26 16:55 43.54712 7.24926 11521 ft 230 kts 275°
2026-04-26 16:55 43.55263 7.22891 12401 ft 226 kts 306°
2026-04-26 16:55 43.55886 7.21761 13069 ft 221 kts 309°
2026-04-26 16:55 43.57149 7.19561 14320 ft 216 kts 308°
2026-04-26 16:56 43.58677 7.16871 15684 ft 212 kts 307°
2026-04-26 16:56 43.59581 7.15280 16502 ft 211 kts 307°
2026-04-26 16:56 43.60496 7.13669 17163 ft 219 kts 307°
2026-04-26 16:57 43.61628 7.12022 17141 ft 255 kts 320°
2026-04-26 16:57 43.63096 7.10407 17296 ft 284 kts 320°
2026-04-26 16:57 43.66415 7.06605 17652 ft 336 kts 319°
2026-04-26 16:58 43.68282 7.04467 17721 ft 362 kts 319°
2026-04-26 16:58 43.69627 7.02938 17756 ft 378 kts 320°
2026-04-26 16:58 43.74433 6.97441 19142 ft 390 kts 319°
2026-04-26 16:59 43.76538 6.95024 19776 ft 394 kts 319°
2026-04-26 16:59 43.80799 6.90138 21097 ft 401 kts 319°
2026-04-26 17:00 43.85144 6.85137 22409 ft 410 kts 318°
2026-04-26 17:00 43.89558 6.80053 23740 ft 416 kts 317°
2026-04-26 17:00 43.91791 6.77474 24257 ft 419 kts 317°
2026-04-26 17:01 43.94071 6.74925 24765 ft 423 kts 321°
2026-04-26 17:01 43.96601 6.72807 25279 ft 427 kts 328°
2026-04-26 17:01 43.99194 6.70760 25842 ft 430 kts 327°
2026-04-26 17:01 44.01751 6.68682 26370 ft 433 kts 327°
2026-04-26 17:02 44.04366 6.66561 26900 ft 436 kts 328°
2026-04-26 17:02 44.07006 6.64453 27415 ft 440 kts 328°
2026-04-26 17:02 44.09668 6.62328 27954 ft 443 kts 328°
2026-04-26 17:02 44.12346 6.60167 28484 ft 446 kts 327°
2026-04-26 17:03 44.15046 6.57980 29001 ft 450 kts 327°
2026-04-26 17:03 44.17765 6.55787 29501 ft 453 kts 328°
2026-04-26 17:03 44.20509 6.53578 29990 ft 457 kts 328°
2026-04-26 17:03 44.23304 6.51442 30424 ft 461 kts 330°
2026-04-26 17:04 44.26154 6.49345 30776 ft 466 kts 330°
2026-04-26 17:04 44.29029 6.47218 31234 ft 468 kts 329°
2026-04-26 17:04 44.31884 6.45095 31986 ft 464 kts 329°
2026-04-26 17:04 44.34758 6.42956 32135 ft 474 kts 329°
2026-04-26 17:05 44.37716 6.40757 32120 ft 486 kts 329°
2026-04-26 17:05 44.40738 6.38512 32121 ft 497 kts 329°
2026-04-26 17:05 44.43822 6.36218 32129 ft 508 kts 329°
2026-04-26 17:05 44.46968 6.33870 32132 ft 516 kts 329°
2026-04-26 17:06 44.53357 6.29095 32127 ft 523 kts 329°
2026-04-26 17:06 44.59784 6.24282 32129 ft 524 kts 329°
2026-04-26 17:07 44.66210 6.19454 32118 ft 524 kts 329°
2026-04-26 17:07 44.72640 6.14614 32119 ft 525 kts 329°
2026-04-26 17:08 44.79082 6.09750 32122 ft 525 kts 329°
2026-04-26 17:08 44.85512 6.04884 32127 ft 524 kts 330°
2026-04-26 17:09 44.90835 6.00847 32131 ft 523 kts 330°
2026-04-26 17:09 44.98322 5.95151 32129 ft 523 kts 330°
2026-04-26 17:10 45.04688 5.90298 32137 ft 523 kts 330°
2026-04-26 17:10 45.11064 5.85422 32132 ft 520 kts 330°
2026-04-26 17:11 45.17438 5.80536 32128 ft 521 kts 330°
2026-04-26 17:11 45.23810 5.75639 32128 ft 520 kts 330°
2026-04-26 17:12 45.33275 5.68343 32115 ft 513 kts 331°
2026-04-26 17:13 45.42677 5.61066 32121 ft 512 kts 331°
2026-04-26 17:14 45.52073 5.53766 32126 ft 514 kts 331°
2026-04-26 17:14 45.61480 5.46430 32117 ft 514 kts 332°
2026-04-26 17:15 45.70811 5.39125 32124 ft 509 kts 332°
2026-04-26 17:16 45.77021 5.34249 32129 ft 510 kts 332°
2026-04-26 17:16 45.83238 5.29353 32128 ft 510 kts 332°
2026-04-26 17:17 45.89426 5.24468 32134 ft 505 kts 332°
2026-04-26 17:17 45.95590 5.19590 32131 ft 506 kts 332°
2026-04-26 17:18 46.01761 5.14693 32127 ft 506 kts 332°
2026-04-26 17:18 46.07895 5.09814 32131 ft 502 kts 332°
2026-04-26 17:19 46.17055 5.02505 32132 ft 502 kts 332°
2026-04-26 17:19 46.23168 4.97609 32136 ft 502 kts 332°
2026-04-26 17:20 46.28399 4.94023 32138 ft 499 kts 337°
2026-04-26 17:20 46.35814 4.89231 32145 ft 500 kts 336°
2026-04-26 17:21 46.42173 4.85157 32146 ft 500 kts 336°
2026-04-26 17:21 46.48514 4.81054 32143 ft 497 kts 336°
2026-04-26 17:22 46.54820 4.76975 32143 ft 497 kts 336°
2026-04-26 17:22 46.61135 4.72878 32146 ft 497 kts 336°
2026-04-26 17:23 46.67443 4.68773 32144 ft 496 kts 336°
2026-04-26 17:23 46.73749 4.64661 32145 ft 497 kts 336°
2026-04-26 17:24 46.80063 4.60561 32148 ft 497 kts 336°
2026-04-26 17:24 46.86388 4.56489 32146 ft 497 kts 336°
2026-04-26 17:25 46.92705 4.52377 32156 ft 497 kts 336°
2026-04-26 17:25 46.98916 4.48347 31752 ft 463 kts 336°
2026-04-26 17:26 47.01764 4.46484 31299 ft 437 kts 336°
2026-04-26 17:26 47.04495 4.44700 30864 ft 425 kts 336°
2026-04-26 17:26 47.07237 4.42915 30433 ft 435 kts 336°
2026-04-26 17:26 47.10000 4.41112 29956 ft 434 kts 336°
2026-04-26 17:27 47.12758 4.39304 29506 ft 433 kts 335°
2026-04-26 17:27 47.15499 4.37506 29069 ft 432 kts 335°
2026-04-26 17:27 47.18241 4.35708 28627 ft 430 kts 335°
2026-04-26 17:27 47.20975 4.33915 28186 ft 429 kts 335°
2026-04-26 17:28 47.23690 4.32128 27742 ft 427 kts 335°
2026-04-26 17:28 47.26400 4.30344 27310 ft 426 kts 335°
2026-04-26 17:28 47.29096 4.28567 26876 ft 424 kts 335°
2026-04-26 17:28 47.31778 4.26798 26451 ft 422 kts 335°
2026-04-26 17:29 47.34453 4.25031 26016 ft 419 kts 335°
2026-04-26 17:29 47.36210 4.23869 25732 ft 418 kts 335°
2026-04-26 17:29 47.39761 4.21520 25164 ft 417 kts 335°
2026-04-26 17:29 47.42398 4.19773 24739 ft 415 kts 335°
2026-04-26 17:30 47.45033 4.18024 24317 ft 414 kts 335°
2026-04-26 17:30 47.47654 4.16283 23895 ft 413 kts 335°
2026-04-26 17:30 47.50270 4.14543 23438 ft 411 kts 335°
2026-04-26 17:30 47.52866 4.12816 23017 ft 408 kts 335°
2026-04-26 17:31 47.55445 4.11096 22597 ft 405 kts 335°
2026-04-26 17:31 47.58008 4.09386 22183 ft 403 kts 335°
2026-04-26 17:31 47.60560 4.07682 21770 ft 401 kts 335°
2026-04-26 17:31 47.63089 4.05991 21360 ft 398 kts 335°
2026-04-26 17:32 47.65609 4.04305 20962 ft 396 kts 335°
2026-04-26 17:32 47.68112 4.02627 20555 ft 394 kts 335°
2026-04-26 17:32 47.70602 4.00957 20151 ft 391 kts 335°
2026-04-26 17:32 47.73070 3.99301 19753 ft 389 kts 335°
2026-04-26 17:33 47.75497 3.97669 19359 ft 386 kts 334°
2026-04-26 17:33 47.77911 3.95946 18950 ft 383 kts 329°
2026-04-26 17:33 47.80000 3.93522 18556 ft 380 kts 315°
2026-04-26 17:34 47.83087 3.87199 17780 ft 377 kts 303°
2026-04-26 17:34 47.84537 3.83950 17391 ft 375 kts 304°
2026-04-26 17:34 47.85985 3.80725 17004 ft 374 kts 304°
2026-04-26 17:34 47.87416 3.77511 16620 ft 372 kts 303°
2026-04-26 17:35 47.88841 3.74296 16236 ft 370 kts 303°
2026-04-26 17:35 47.90260 3.71096 15857 ft 369 kts 303°
2026-04-26 17:35 47.91677 3.67907 15483 ft 368 kts 303°
2026-04-26 17:35 47.93084 3.64735 15105 ft 366 kts 303°
2026-04-26 17:36 47.94474 3.61591 14735 ft 357 kts 303°
2026-04-26 17:36 47.95797 3.58593 14376 ft 336 kts 303°
2026-04-26 17:36 47.97169 3.55846 14006 ft 327 kts 312°
2026-04-26 17:36 47.98769 3.53427 13676 ft 329 kts 315°
2026-04-26 17:37 48.00391 3.51027 13344 ft 329 kts 315°
2026-04-26 17:37 48.02007 3.48559 13005 ft 332 kts 314°
2026-04-26 17:37 48.03607 3.46087 12664 ft 327 kts 314°
2026-04-26 17:38 48.06797 3.41221 11989 ft 327 kts 314°
2026-04-26 17:38 48.08389 3.38785 11654 ft 327 kts 314°
2026-04-26 17:38 48.09445 3.37165 11438 ft 329 kts 314°
2026-04-26 17:38 48.11036 3.34723 11103 ft 327 kts 314°
2026-04-26 17:39 48.12616 3.32302 10769 ft 324 kts 314°
2026-04-26 17:39 48.14145 3.29954 10440 ft 304 kts 314°
2026-04-26 17:39 48.15582 3.27741 10136 ft 290 kts 314°
2026-04-26 17:39 48.16973 3.25601 9819 ft 285 kts 314°
2026-04-26 17:40 48.18357 3.23473 9528 ft 284 kts 314°
2026-04-26 17:40 48.19288 3.22041 9332 ft 284 kts 314°
2026-04-26 17:40 48.21108 3.19235 8951 ft 283 kts 314°
2026-04-26 17:40 48.22484 3.17120 8662 ft 283 kts 314°
2026-04-26 17:41 48.23857 3.15009 8376 ft 282 kts 314°
2026-04-26 17:41 48.25221 3.12907 8086 ft 280 kts 314°
2026-04-26 17:41 48.26576 3.10816 7798 ft 279 kts 314°
2026-04-26 17:41 48.27926 3.08733 7512 ft 278 kts 314°
2026-04-26 17:42 48.29272 3.06653 7230 ft 277 kts 314°
2026-04-26 17:42 48.30596 3.04607 7183 ft 271 kts 314°
2026-04-26 17:42 48.31922 3.02556 7193 ft 274 kts 314°
2026-04-26 17:42 48.33256 3.00491 7194 ft 276 kts 314°
2026-04-26 17:43 48.34596 2.98415 7203 ft 277 kts 314°
2026-04-26 17:43 48.35934 2.96340 7200 ft 277 kts 314°
2026-04-26 17:43 48.37278 2.94253 7202 ft 277 kts 314°
2026-04-26 17:43 48.38616 2.92176 7204 ft 277 kts 314°
2026-04-26 17:44 48.39948 2.90084 7200 ft 277 kts 312°
2026-04-26 17:44 48.40862 2.87565 7148 ft 276 kts 284°
2026-04-26 17:44 48.41031 2.84698 7203 ft 277 kts 271°
2026-04-26 17:44 48.41026 2.81839 7039 ft 268 kts 269°
2026-04-26 17:45 48.41022 2.79030 6713 ft 261 kts 270°
2026-04-26 17:45 48.41037 2.76289 6848 ft 268 kts 270°
2026-04-26 17:45 48.41022 2.73467 6966 ft 272 kts 265°
2026-04-26 17:45 48.40607 2.70667 6995 ft 275 kts 254°
2026-04-26 17:46 48.40033 2.67965 6824 ft 270 kts 252°
2026-04-26 17:46 48.39433 2.65242 6124 ft 282 kts 252°
2026-04-26 17:46 48.38828 2.62490 5984 ft 270 kts 252°
2026-04-26 17:46 48.38240 2.59827 5984 ft 270 kts 252°
2026-04-26 17:47 48.37648 2.57138 5986 ft 271 kts 252°
2026-04-26 17:47 48.37247 2.55318 5987 ft 272 kts 252°
2026-04-26 17:47 48.36595 2.51681 5974 ft 272 kts 259°
2026-04-26 17:47 48.36299 2.48905 5686 ft 266 kts 262°
2026-04-26 17:48 48.36018 2.46063 5031 ft 281 kts 262°
2026-04-26 17:48 48.35736 2.43229 4987 ft 267 kts 262°
2026-04-26 17:48 48.35456 2.40448 4979 ft 269 kts 262°
2026-04-26 17:48 48.35178 2.37667 4977 ft 270 kts 262°
2026-04-26 17:49 48.34898 2.34868 4978 ft 271 kts 262°
2026-04-26 17:49 48.34617 2.32076 4979 ft 270 kts 262°
2026-04-26 17:49 48.34345 2.29276 4979 ft 271 kts 263°
2026-04-26 17:49 48.34242 2.26446 4973 ft 270 kts 270°
2026-04-26 17:50 48.34270 2.23628 4974 ft 270 kts 271°
2026-04-26 17:50 48.34314 2.20801 4976 ft 270 kts 272°
2026-04-26 17:50 48.34357 2.17980 4976 ft 270 kts 272°
2026-04-26 17:50 48.34402 2.15166 4976 ft 270 kts 272°
2026-04-26 17:51 48.34446 2.12327 4977 ft 272 kts 271°
2026-04-26 17:51 48.34496 2.09477 4978 ft 273 kts 271°
2026-04-26 17:51 48.34545 2.06640 4976 ft 271 kts 272°
2026-04-26 17:51 48.34595 2.03790 4975 ft 273 kts 271°
2026-04-26 17:52 48.34643 2.00931 4977 ft 273 kts 272°
2026-04-26 17:52 48.34690 1.98080 4978 ft 271 kts 271°
2026-04-26 17:52 48.34802 1.95243 4937 ft 273 kts 281°
2026-04-26 17:52 48.35724 1.92817 4910 ft 270 kts 317°
2026-04-26 17:53 48.37318 1.91710 4886 ft 239 kts 354°
2026-04-26 17:53 48.38858 1.91921 4972 ft 222 kts 10°
2026-04-26 17:53 48.40413 1.92200 4988 ft 225 kts
2026-04-26 17:54 48.43513 1.91500 4995 ft 227 kts 348°
2026-04-26 17:54 48.45061 1.91050 4995 ft 226 kts 351°
2026-04-26 17:54 48.46612 1.90659 4997 ft 224 kts 351°
2026-04-26 17:54 48.48120 1.90274 4565 ft 222 kts 351°
2026-04-26 17:55 48.49601 1.89884 4479 ft 209 kts 352°
2026-04-26 17:55 48.51020 1.89510 4487 ft 209 kts 352°
2026-04-26 17:55 48.52461 1.89134 4490 ft 210 kts 352°
2026-04-26 17:55 48.53906 1.88757 4490 ft 212 kts 352°
2026-04-26 17:56 48.55360 1.88375 4499 ft 213 kts 351°
2026-04-26 17:56 48.58280 1.87608 4501 ft 213 kts 351°
2026-04-26 17:57 48.61191 1.86843 4503 ft 213 kts 352°
2026-04-26 17:57 48.62642 1.86461 4491 ft 208 kts 351°
2026-04-26 17:57 48.64024 1.86096 3842 ft 206 kts 353°
2026-04-26 17:57 48.65506 1.85711 3083 ft 219 kts 353°
2026-04-26 17:58 48.69488 1.86241 2988 ft 196 kts 43°
2026-04-26 17:59 48.70617 1.89951 3017 ft 198 kts 71°
2026-04-26 17:59 48.71063 1.91920 2976 ft 192 kts 70°
2026-04-26 17:59 48.71505 1.93855 2735 ft 189 kts 70°
2026-04-26 17:59 48.71895 1.95579 2496 ft 164 kts 70°
2026-04-26 18:00 48.72263 1.97202 2285 ft 155 kts 70°
2026-04-26 18:00 48.72582 1.98610 2078 ft 129 kts 70°
2026-04-26 18:00 48.72856 1.99824 1909 ft 118 kts 69°
2026-04-26 18:00 48.73119 2.00995 1762 ft 119 kts 70°
2026-04-26 18:01 48.73383 2.02192 1596 ft 119 kts 71°
2026-04-26 18:01 48.73639 2.03362 1467 ft 116 kts 70°
2026-04-26 18:01 48.73896 2.04544 1278 ft 121 kts 72°
2026-04-26 18:01 48.74179 2.05742 1157 ft 118 kts 68°
2026-04-26 18:02 48.74453 2.06923 991 ft 121 kts 68°
2026-04-26 18:02 48.74641 2.07713 869 ft 120 kts 69°
2026-04-26 18:02 48.74995 2.09318 638 ft 118 kts 69°
2026-04-26 18:02 48.75249 2.10436 547 ft 101 kts 71°
2026-04-26 18:03 48.75391 2.11078 541 ft 35 kts 70°
2026-04-26 18:03 48.75403 2.11338 543 ft 15 kts 110°
2026-04-26 18:03 48.75366 2.11474 544 ft 9 kts 109°
2026-04-26 18:03 48.75344 2.11546 544 ft 7 kts 130°
2026-04-26 18:04 48.75313 2.11578 544 ft 4 kts 164°
2026-04-26 18:04 48.75280 2.11583 544 ft 6 kts 181°
2026-04-26 18:04 48.75241 2.11559 544 ft 7 kts 214°
2026-04-26 18:05 48.75223 2.11528 544 ft 0 kts 239°
2026-04-26 18:05 48.75216 2.11505 544 ft 7 kts 247°
2026-04-26 18:06 48.75190 2.11392 543 ft 15 kts 250°
2026-04-26 18:06 48.75156 2.11237 543 ft 13 kts 250°
2026-04-26 18:06 48.75125 2.11105 543 ft 9 kts 252°
2026-04-26 18:06 48.75075 2.11070 544 ft 9 kts 183°
2026-04-26 18:07 48.75055 2.11067 544 ft 2 kts 188°
2026-04-26 18:07 48.75046 2.11056 544 ft 1 kts 231°
2026-04-26 18:07 48.75045 2.11049 544 ft 0 kts 255°
2026-04-26 18:07 48.75046 2.11051 544 ft 2 kts 261°
2026-04-26 18:08 48.75043 2.11073 544 ft 1 kts 269°
2026-04-26 18:08 48.75043 2.11064 544 ft 1 kts 272°
2026-04-26 18:08 48.75043 2.11058 544 ft 1 kts 272°
2026-04-26 18:08 48.75044 2.11053 544 ft 1 kts 272°
2026-04-26 18:09 48.75044 2.11048 544 ft 0 kts 272°
2026-04-26 18:09 48.75044 2.11043 544 ft 0 kts 273°
2026-04-26 18:09 48.75044 2.11042 544 ft 0 kts 273°